World > North America > United States > Florida

Hourly Avon Park Lakes, FL Regional Weather

Feedback E-mail the Weather

Quick WX

Avon Park Lakes, FL Weather Maps

°F °C°F °C
Avon Park Lakes Weather Map
UTC Time: 7/2/2022, 04:22
Your Time:

Avon Park Lakes, FL Regional Weather

Expires:202207020500;;530934
ASUS42 KTBW 020416
RWRFL 
FLORIDA REGIONAL WEATHER ROUNDUP
NATIONAL WEATHER SERVICE TAMPA BAY RUSKIN FL
1200 AM EDT SAT JUL 02 2022

NOTE: "FAIR" INDICATES FEW OR NO CLOUDS BELOW 12,000 FEET WITH NO
SIGNIFICANT WEATHER AND/OR OBSTRUCTIONS TO VISIBILITY.


FLZ040-043>046-052-053-057-058-063-144-020500-
INTERIOR CENTRAL FLORIDA
  
CITY           SKY/WX    TMP DP  RH WIND       PRES   REMARKS
OCALA          CLOUDY    76  74  93 CALM      30.10S                  
LEESBURG         N/A     75  74  96 CALM      30.11R                  
SANFORD        MOCLDY    76  74  93 CALM      30.10R                  
ORLANDO EXEC   MOCLDY    80  75  84 CALM      30.10R                  
ORLANDO INTL   CLOUDY    78  73  84 S3        30.10R                  
KISSIMMEE      MOCLDY    77  73  87 CALM      30.11R                  
WINTER HAVEN   MOCLDY    77  72  84 CALM      30.11R                  
LAKELAND INTL  PTCLDY    77  72  83 CALM      30.10R                  
BARTOW         FAIR      75  73  94 SE3       30.10S                  
SEBRING        FAIR      76  76  98 NE5       30.10S                  
OKEECHOBEE     PTCLDY    77  77 100 CALM      30.08S                  

$$

SKY/WX - Weather  TMP - Temperature  DP - Dew Point  RH - Humidity
WIND - Wind Direction/Speed PRES - Barometric Pressure VSB - Visibility
WCI - Wind Chill Index E13G22 Wind - East Wind 13 mph/Gusts of 22 mph

Trending Headlines

Avon Park Lakes Radar Loop



Avon Park Lakes Quick Facts


National Two Day Weather Forecast


E-mail the Avon Park Lakes Weather Forecast

Voice your opinion or tell us about page issues...